TimeCDT,TemperatureF,Dew PointF,Humidity,Sea Level PressureIn,VisibilityMPH,Wind Direction,Wind SpeedMPH,Gust SpeedMPH,PrecipitationIn,Events,Conditions,WindDirDegrees,DateUTC
12:53 AM,90.0,66.0,45,29.88,10.0,Calm,Calm,-,N/A,,Clear,0,2013-07-27 05:53:00
1:53 AM,91.0,64.9,42,29.88,10.0,NE,8.1,-,N/A,,Mostly Cloudy,50,2013-07-27 06:53:00
2:53 AM,89.1,66.9,48,29.89,10.0,ENE,11.5,-,N/A,,Scattered Clouds,60,2013-07-27 07:53:00
3:53 AM,87.1,68.0,53,29.89,10.0,ENE,11.5,-,N/A,,Mostly Cloudy,60,2013-07-27 08:53:00
4:53 AM,86.0,68.0,55,29.88,10.0,ENE,6.9,-,N/A,,Scattered Clouds,60,2013-07-27 09:53:00
5:53 AM,84.0,69.1,61,29.88,10.0,NNE,5.8,-,N/A,,Clear,30,2013-07-27 10:53:00
6:53 AM,84.0,68.0,58,29.91,10.0,NNE,5.8,-,N/A,,Mostly Cloudy,30,2013-07-27 11:53:00
7:53 AM,84.0,68.0,58,29.93,10.0,North,6.9,-,N/A,,Overcast,360,2013-07-27 12:53:00
8:53 AM,84.9,66.9,55,29.94,10.0,NNE,9.2,-,N/A,,Mostly Cloudy,20,2013-07-27 13:53:00
9:53 AM,87.1,66.9,51,29.95,10.0,NE,6.9,-,N/A,,Scattered Clouds,40,2013-07-27 14:53:00
10:53 AM,90.0,66.0,45,29.95,10.0,Variable,6.9,-,N/A,,Clear,0,2013-07-27 15:53:00
11:53 AM,91.0,66.0,44,29.94,10.0,Variable,4.6,-,N/A,,Scattered Clouds,0,2013-07-27 16:53:00
12:53 PM,93.0,64.9,39,29.92,10.0,WNW,5.8,16.1,N/A,,Clear,290,2013-07-27 17:53:00
1:53 PM,97.0,64.0,34,29.89,10.0,Variable,6.9,-,N/A,,Clear,0,2013-07-27 18:53:00
2:53 PM,95.0,63.0,34,29.87,10.0,WNW,10.4,-,N/A,,Clear,290,2013-07-27 19:53:00
3:53 PM,97.0,60.1,29,29.83,10.0,Calm,Calm,-,N/A,,Clear,0,2013-07-27 20:53:00
4:53 PM,100.9,55.9,22,29.81,10.0,NNE,5.8,-,N/A,,Partly Cloudy,30,2013-07-27 21:53:00
5:53 PM,100.0,57.9,25,29.81,10.0,SSW,5.8,-,N/A,,Clear,210,2013-07-27 22:53:00
6:53 PM,99.0,57.9,25,29.78,10.0,ENE,11.5,17.3,N/A,,Clear,60,2013-07-27 23:53:00
7:53 PM,97.0,57.0,26,29.78,10.0,NE,5.8,-,N/A,,Clear,40,2013-07-28 00:53:00
8:53 PM,95.0,59.0,30,29.80,10.0,NE,5.8,-,N/A,,Clear,50,2013-07-28 01:53:00
9:53 PM,91.9,59.0,33,29.82,10.0,East,4.6,-,N/A,,Partly Cloudy,80,2013-07-28 02:53:00
10:53 PM,89.1,70.0,53,29.83,10.0,ESE,8.1,-,N/A,,Scattered Clouds,120,2013-07-28 03:53:00
11:53 PM,88.0,70.0,55,29.85,10.0,SE,10.4,-,N/A,,Scattered Clouds,140,2013-07-28 04:53:00